Time,TemperatureF,DewpointF,PressureIn,WindDirection,WindDirectionDegrees,WindSpeedMPH,WindSpeedGustMPH,Humidity,HourlyPrecipIn,Conditions,Clouds,dailyrainin,SoftwareType,DateUTC
2013-03-07 00:00:00,37.2,23.0,30.40,SE,129,8.0,14.0,56,0.00,,,0.00,meteohub,2013-03-07 05:00:00,
2013-03-07 00:05:00,37.2,23.0,30.40,East,98,10.0,13.0,56,0.00,,,0.00,meteohub,2013-03-07 05:05:00,
2013-03-07 00:10:00,37.0,22.8,30.40,ESE,114,11.0,13.0,56,0.00,,,0.00,meteohub,2013-03-07 05:10:00,
2013-03-07 00:15:00,37.0,22.8,30.40,ESE,106,10.0,13.0,56,0.00,,,0.00,meteohub,2013-03-07 05:15:00,
2013-03-07 00:20:00,37.0,23.2,30.41,ESE,108,6.0,14.0,57,0.00,,,0.00,meteohub,2013-03-07 05:20:00,
2013-03-07 00:25:00,37.0,23.2,30.41,ESE,122,6.0,14.0,57,0.00,,,0.00,meteohub,2013-03-07 05:25:00,
2013-03-07 00:30:00,37.0,23.2,30.40,SE,124,5.0,14.0,57,0.00,,,0.00,meteohub,2013-03-07 05:30:00,
2013-03-07 00:35:00,36.9,23.0,30.40,ESE,117,11.0,14.0,57,0.00,,,0.00,meteohub,2013-03-07 05:35:00,
2013-03-07 00:40:00,36.9,23.0,30.40,SE,134,6.0,15.0,57,0.00,,,0.00,meteohub,2013-03-07 05:40:00,
2013-03-07 00:45:00,36.9,23.0,30.40,ESE,112,11.0,15.0,57,0.00,,,0.00,meteohub,2013-03-07 05:45:00,
2013-03-07 00:50:00,36.9,23.0,30.40,ESE,117,9.0,15.0,57,0.00,,,0.00,meteohub,2013-03-07 05:50:00,
2013-03-07 00:55:00,37.0,23.2,30.40,ESE,119,9.0,14.0,57,0.00,,,0.00,meteohub,2013-03-07 05:55:00,
2013-03-07 01:00:00,36.9,23.0,30.40,ESE,121,9.0,14.0,57,0.00,,,0.00,meteohub,2013-03-07 06:00:00,
2013-03-07 01:05:00,36.9,23.0,30.40,ESE,110,9.0,13.0,57,0.00,,,0.00,meteohub,2013-03-07 06:05:00,
2013-03-07 01:10:00,36.9,23.0,30.39,ESE,120,9.0,13.0,57,0.00,,,0.00,meteohub,2013-03-07 06:10:00,
2013-03-07 01:15:00,36.9,23.0,30.39,ESE,115,11.0,15.0,57,0.00,,,0.00,meteohub,2013-03-07 06:15:00,
2013-03-07 01:20:00,36.7,22.8,30.39,ESE,111,11.0,15.0,57,0.00,,,0.00,meteohub,2013-03-07 06:20:00,
2013-03-07 01:25:00,36.7,22.8,30.39,ESE,109,11.0,15.0,57,0.00,,,0.00,meteohub,2013-03-07 06:25:00,
2013-03-07 01:30:00,36.5,23.2,30.38,ESE,102,10.0,14.0,58,0.00,,,0.00,meteohub,2013-03-07 06:30:00,
2013-03-07 01:35:00,36.5,23.2,30.39,ESE,106,6.0,14.0,58,0.00,,,0.00,meteohub,2013-03-07 06:35:00,
2013-03-07 01:40:00,36.3,23.4,30.38,East,93,8.0,14.0,59,0.00,,,0.00,meteohub,2013-03-07 06:40:00,
2013-03-07 01:45:00,36.1,23.5,30.38,SE,127,10.0,19.0,60,0.00,,,0.00,meteohub,2013-03-07 06:45:00,
2013-03-07 01:50:00,36.0,23.9,30.38,East,94,11.0,19.0,61,0.00,,,0.00,meteohub,2013-03-07 06:50:00,
2013-03-07 01:55:00,35.8,23.7,30.38,SE,132,6.0,17.0,61,0.00,,,0.00,meteohub,2013-03-07 06:55:00,
2013-03-07 02:01:00,35.4,23.7,30.38,East,84,9.0,16.0,62,0.00,,,0.00,meteohub,2013-03-07 07:01:00,
2013-03-07 02:06:00,35.4,23.7,30.38,ESE,103,10.0,16.0,62,0.00,,,0.00,meteohub,2013-03-07 07:06:00,
2013-03-07 02:11:00,35.2,23.9,30.39,ESE,105,14.0,16.0,63,0.00,,,0.00,meteohub,2013-03-07 07:11:00,
2013-03-07 02:16:00,35.1,23.7,30.39,ESE,103,8.0,16.0,63,0.00,,,0.00,meteohub,2013-03-07 07:16:00,
2013-03-07 02:21:00,34.9,23.9,30.39,ESE,116,13.0,16.0,64,0.00,,,0.00,meteohub,2013-03-07 07:21:00,
2013-03-07 02:26:00,34.7,24.1,30.39,ESE,117,11.0,16.0,65,0.00,,,0.00,meteohub,2013-03-07 07:26:00,
2013-03-07 02:31:00,34.7,24.1,30.39,ESE,105,14.0,16.0,65,0.00,,,0.00,meteohub,2013-03-07 07:31:00,
2013-03-07 02:36:00,34.7,24.1,30.39,SE,130,8.0,17.0,65,0.00,,,0.00,meteohub,2013-03-07 07:36:00,
2013-03-07 02:41:00,34.7,24.4,30.39,ESE,118,10.0,17.0,66,0.00,,,0.00,meteohub,2013-03-07 07:41:00,
2013-03-07 02:46:00,34.9,24.3,30.39,ESE,120,7.0,17.0,65,0.00,,,0.00,meteohub,2013-03-07 07:46:00,
2013-03-07 02:51:00,34.9,24.3,30.39,East,96,8.0,16.0,65,0.00,,,0.00,meteohub,2013-03-07 07:51:00,
2013-03-07 02:56:00,35.1,24.4,30.39,ESE,110,12.0,17.0,65,0.00,,,0.00,meteohub,2013-03-07 07:56:00,
2013-03-07 03:01:00,35.1,24.4,30.38,ESE,118,8.0,17.0,65,0.00,,,0.00,meteohub,2013-03-07 08:01:00,
2013-03-07 03:06:00,35.1,24.8,30.38,SE,134,7.0,17.0,66,0.00,,,0.00,meteohub,2013-03-07 08:06:00,
2013-03-07 03:11:00,34.9,24.6,30.38,ESE,109,11.0,16.0,66,0.00,,,0.00,meteohub,2013-03-07 08:11:00,
2013-03-07 03:16:00,34.9,24.6,30.38,ESE,122,9.0,16.0,66,0.00,,,0.00,meteohub,2013-03-07 08:16:00,
2013-03-07 03:21:00,34.5,24.6,30.38,ESE,117,9.0,17.0,67,0.00,,,0.00,meteohub,2013-03-07 08:21:00,
2013-03-07 03:27:00,34.5,24.6,30.38,East,100,15.0,17.0,67,0.00,,,0.00,meteohub,2013-03-07 08:27:00,
2013-03-07 03:31:00,34.5,24.6,30.38,SE,127,6.0,17.0,67,0.00,,,0.00,meteohub,2013-03-07 08:31:00,
2013-03-07 03:37:00,34.5,24.6,30.38,SE,132,9.0,16.0,67,0.00,,,0.00,meteohub,2013-03-07 08:37:00,
2013-03-07 03:42:00,34.5,24.6,30.37,ESE,118,8.0,16.0,67,0.00,,,0.00,meteohub,2013-03-07 08:42:00,
2013-03-07 03:47:00,34.5,24.6,30.37,ESE,111,11.0,14.0,67,0.00,,,0.00,meteohub,2013-03-07 08:47:00,
2013-03-07 03:52:00,34.9,24.6,30.37,SE,124,9.0,14.0,66,0.00,,,0.00,meteohub,2013-03-07 08:52:00,
2013-03-07 03:57:00,35.1,24.4,30.36,ESE,118,15.0,15.0,65,0.00,,,0.00,meteohub,2013-03-07 08:57:00,
2013-03-07 04:02:00,35.1,24.4,30.36,SE,130,9.0,19.0,65,0.00,,,0.00,meteohub,2013-03-07 09:02:00,
2013-03-07 04:07:00,35.1,24.4,30.36,SE,130,7.0,19.0,65,0.00,,,0.00,meteohub,2013-03-07 09:07:00,
2013-03-07 04:12:00,34.9,24.3,30.35,ESE,103,13.0,19.0,65,0.00,,,0.00,meteohub,2013-03-07 09:12:00,
2013-03-07 04:17:00,34.9,24.3,30.36,ESE,122,9.0,17.0,65,0.00,,,0.00,meteohub,2013-03-07 09:17:00,
2013-03-07 04:22:00,34.9,24.3,30.35,ESE,112,11.0,17.0,65,0.00,,,0.00,meteohub,2013-03-07 09:22:00,
2013-03-07 04:27:00,34.9,24.3,30.35,East,98,8.0,18.0,65,0.00,,,0.00,meteohub,2013-03-07 09:27:00,
2013-03-07 04:32:00,34.9,24.3,30.35,East,98,12.0,18.0,65,0.00,,,0.00,meteohub,2013-03-07 09:32:00,
2013-03-07 04:37:00,34.9,24.3,30.35,SE,124,12.0,19.0,65,0.00,,,0.00,meteohub,2013-03-07 09:37:00,
2013-03-07 04:42:00,34.9,24.3,30.35,ESE,115,11.0,19.0,65,0.00,,,0.00,meteohub,2013-03-07 09:42:00,
2013-03-07 04:47:00,34.9,24.3,30.35,SE,132,10.0,17.0,65,0.00,,,0.00,meteohub,2013-03-07 09:47:00,
2013-03-07 04:52:00,34.9,24.3,30.35,ESE,103,7.0,17.0,65,0.00,,,0.00,meteohub,2013-03-07 09:52:00,
2013-03-07 04:57:00,34.9,24.6,30.35,ESE,113,12.0,18.0,66,0.00,,,0.00,meteohub,2013-03-07 09:57:00,
2013-03-07 05:02:00,34.9,24.6,30.35,SE,124,10.0,18.0,66,0.00,,,0.00,meteohub,2013-03-07 10:02:00,
2013-03-07 05:07:00,34.7,24.4,30.35,SE,134,12.0,18.0,66,0.00,,,0.00,meteohub,2013-03-07 10:07:00,
2013-03-07 05:12:00,34.7,24.4,30.34,ESE,122,15.0,18.0,66,0.00,,,0.00,meteohub,2013-03-07 10:12:00,
2013-03-07 05:17:00,34.7,24.4,30.34,ESE,121,11.0,18.0,66,0.00,,,0.00,meteohub,2013-03-07 10:17:00,
2013-03-07 05:22:00,34.9,24.6,30.34,ESE,112,8.0,20.0,66,0.00,,,0.00,meteohub,2013-03-07 10:22:00,
2013-03-07 05:27:00,34.9,24.6,30.33,ESE,117,13.0,20.0,66,0.00,,,0.00,meteohub,2013-03-07 10:27:00,
2013-03-07 05:32:00,34.9,24.6,30.33,ESE,105,17.0,20.0,66,0.00,,,0.00,meteohub,2013-03-07 10:32:00,
2013-03-07 05:37:00,34.9,24.6,30.33,ESE,108,11.0,19.0,66,0.00,,,0.00,meteohub,2013-03-07 10:37:00,
2013-03-07 05:42:00,34.9,24.6,30.33,ESE,112,13.0,17.0,66,0.00,,,0.00,meteohub,2013-03-07 10:42:00,
2013-03-07 05:47:00,34.9,24.3,30.33,ESE,116,12.0,18.0,65,0.00,,,0.00,meteohub,2013-03-07 10:47:00,
2013-03-07 05:52:00,35.1,24.4,30.33,East,86,8.0,18.0,65,0.00,,,0.00,meteohub,2013-03-07 10:52:00,
2013-03-07 05:57:00,35.1,24.4,30.33,ESE,115,12.0,18.0,65,0.00,,,0.00,meteohub,2013-03-07 10:57:00,
2013-03-07 06:03:00,35.2,24.3,30.33,ESE,106,11.0,16.0,64,0.00,,,0.00,meteohub,2013-03-07 11:03:00,
2013-03-07 06:08:00,35.4,24.4,30.33,East,100,12.0,16.0,64,0.00,,,0.00,meteohub,2013-03-07 11:08:00,
2013-03-07 06:13:00,35.4,24.1,30.33,ESE,112,9.0,16.0,63,0.00,,,0.00,meteohub,2013-03-07 11:13:00,
2013-03-07 06:18:00,35.4,24.1,30.33,ESE,117,15.0,23.0,63,0.00,,,0.00,meteohub,2013-03-07 11:18:00,
2013-03-07 06:23:00,35.4,24.4,30.33,SSE,165,6.0,23.0,64,0.00,,,0.00,meteohub,2013-03-07 11:23:00,
2013-03-07 06:28:00,35.4,24.4,30.33,ESE,113,18.0,18.0,64,0.00,,,0.00,meteohub,2013-03-07 11:28:00,
2013-03-07 06:33:00,35.4,24.4,30.32,ESE,114,8.0,20.0,64,0.00,,,0.00,meteohub,2013-03-07 11:33:00,
2013-03-07 06:38:00,35.2,24.3,30.32,East,100,12.0,20.0,64,0.00,,,0.00,meteohub,2013-03-07 11:38:00,
2013-03-07 06:43:00,35.2,24.3,30.32,East,100,13.0,20.0,64,0.00,,,0.00,meteohub,2013-03-07 11:43:00,
2013-03-07 06:48:00,35.2,24.3,30.32,SE,142,8.0,18.0,64,0.00,,,0.00,meteohub,2013-03-07 11:48:00,
2013-03-07 06:53:00,35.2,24.3,30.32,East,100,11.0,18.0,64,0.00,,,0.00,meteohub,2013-03-07 11:53:00,
2013-03-07 06:58:00,35.1,24.1,30.32,East,86,13.0,18.0,64,0.00,,,0.00,meteohub,2013-03-07 11:58:00,
2013-03-07 07:03:00,35.1,24.1,30.32,ESE,114,11.0,18.0,64,0.00,,,0.00,meteohub,2013-03-07 12:03:00,
2013-03-07 07:08:00,35.2,24.3,30.32,ESE,103,12.0,18.0,64,0.00,,,0.00,meteohub,2013-03-07 12:08:00,
2013-03-07 07:13:00,35.2,23.9,30.32,ESE,117,12.0,15.0,63,0.00,,,0.00,meteohub,2013-03-07 12:13:00,
2013-03-07 07:18:00,35.2,23.9,30.32,ESE,106,8.0,16.0,63,0.00,,,0.00,meteohub,2013-03-07 12:18:00,
2013-03-07 07:23:00,35.2,23.9,30.33,ESE,108,10.0,17.0,63,0.00,,,0.00,meteohub,2013-03-07 12:23:00,
2013-03-07 07:28:00,35.2,23.9,30.33,East,101,7.0,17.0,63,0.00,,,0.00,meteohub,2013-03-07 12:28:00,
2013-03-07 07:33:00,35.2,23.5,30.33,SE,124,7.0,17.0,62,0.00,,,0.00,meteohub,2013-03-07 12:33:00,
2013-03-07 07:38:00,35.4,23.7,30.32,ESE,115,10.0,15.0,62,0.00,,,0.00,meteohub,2013-03-07 12:38:00,
2013-03-07 07:43:00,35.6,23.5,30.32,ESE,116,9.0,16.0,61,0.00,,,0.00,meteohub,2013-03-07 12:43:00,
2013-03-07 07:49:00,35.8,23.7,30.32,ESE,102,9.0,16.0,61,0.00,,,0.00,meteohub,2013-03-07 12:49:00,
2013-03-07 07:54:00,35.8,23.7,30.32,ESE,110,11.0,16.0,61,0.00,,,0.00,meteohub,2013-03-07 12:54:00,
2013-03-07 07:59:00,36.0,23.4,30.32,SE,127,6.0,16.0,60,0.00,,,0.00,meteohub,2013-03-07 12:59:00,
2013-03-07 08:05:00,36.3,23.4,30.31,East,95,12.0,16.0,59,0.00,,,0.00,meteohub,2013-03-07 13:05:00,
2013-03-07 08:10:00,36.9,23.5,30.31,SE,129,12.0,17.0,58,0.00,,,0.00,meteohub,2013-03-07 13:10:00,
2013-03-07 08:15:00,36.9,23.0,30.31,ESE,117,10.0,19.0,57,0.00,,,0.00,meteohub,2013-03-07 13:15:00,
2013-03-07 08:20:00,37.2,23.4,30.31,ESE,112,16.0,19.0,57,0.00,,,0.00,meteohub,2013-03-07 13:20:00,
2013-03-07 08:25:00,37.2,23.4,30.31,ESE,110,10.0,19.0,57,0.00,,,0.00,meteohub,2013-03-07 13:25:00,
2013-03-07 08:30:00,37.6,23.7,30.32,East,101,11.0,19.0,57,0.00,,,0.00,meteohub,2013-03-07 13:30:00,
2013-03-07 08:35:00,37.6,23.4,30.31,ESE,114,15.0,19.0,56,0.00,,,0.00,meteohub,2013-03-07 13:35:00,
2013-03-07 08:40:00,37.9,23.7,30.32,ESE,117,12.0,19.0,56,0.00,,,0.00,meteohub,2013-03-07 13:40:00,
2013-03-07 08:45:00,38.1,23.4,30.32,ESE,113,11.0,18.0,55,0.00,,,0.00,meteohub,2013-03-07 13:45:00,
2013-03-07 08:50:00,38.5,23.7,30.32,SE,127,13.0,19.0,55,0.00,,,0.00,meteohub,2013-03-07 13:50:00,
2013-03-07 08:55:00,38.7,23.4,30.32,SE,124,13.0,19.0,54,0.00,,,0.00,meteohub,2013-03-07 13:55:00,
2013-03-07 09:00:00,39.2,23.5,30.32,SSE,153,13.0,20.0,53,0.00,,,0.00,meteohub,2013-03-07 14:00:00,
2013-03-07 09:05:00,39.6,23.9,30.32,SE,124,11.0,20.0,53,0.00,,,0.00,meteohub,2013-03-07 14:05:00,
2013-03-07 09:10:00,39.9,23.7,30.32,ESE,114,14.0,23.0,52,0.00,,,0.00,meteohub,2013-03-07 14:10:00,
2013-03-07 09:15:00,40.5,23.4,30.32,SE,133,12.0,23.0,50,0.00,,,0.00,meteohub,2013-03-07 14:15:00,
2013-03-07 09:20:00,41.0,23.4,30.32,SSE,162,9.0,23.0,49,0.00,,,0.00,meteohub,2013-03-07 14:20:00,
2013-03-07 09:25:00,41.4,23.2,30.32,ESE,115,16.0,24.0,48,0.00,,,0.00,meteohub,2013-03-07 14:25:00,
2013-03-07 09:30:00,41.7,23.0,30.32,SSE,149,13.0,24.0,47,0.00,,,0.00,meteohub,2013-03-07 14:30:00,
2013-03-07 09:35:00,42.3,23.0,30.32,ESE,106,17.0,27.0,46,0.00,,,0.00,meteohub,2013-03-07 14:35:00,
2013-03-07 09:40:00,42.6,23.4,30.32,South,180,9.0,27.0,46,0.00,,,0.00,meteohub,2013-03-07 14:40:00,
2013-03-07 09:45:00,43.0,23.2,30.32,SE,143,13.0,24.0,45,0.00,,,0.00,meteohub,2013-03-07 14:45:00,
2013-03-07 09:50:00,43.0,23.5,30.33,East,91,11.0,21.0,46,0.00,,,0.00,meteohub,2013-03-07 14:50:00,
2013-03-07 09:55:00,43.2,23.2,30.33,ESE,109,20.0,20.0,45,0.00,,,0.00,meteohub,2013-03-07 14:55:00,
2013-03-07 10:01:00,43.3,23.4,30.33,SE,131,8.0,21.0,45,0.00,,,0.00,meteohub,2013-03-07 15:01:00,
2013-03-07 10:06:00,43.5,23.5,30.33,SSE,149,9.0,21.0,45,0.00,,,0.00,meteohub,2013-03-07 15:06:00,
2013-03-07 10:11:00,44.1,24.1,30.33,SE,140,10.0,21.0,45,0.00,,,0.00,meteohub,2013-03-07 15:11:00,
2013-03-07 10:16:00,44.2,23.7,30.32,SW,221,7.0,22.0,44,0.00,,,0.00,meteohub,2013-03-07 15:16:00,
2013-03-07 10:21:00,44.8,24.3,30.32,ESE,109,18.0,22.0,44,0.00,,,0.00,meteohub,2013-03-07 15:21:00,
2013-03-07 10:26:00,45.1,24.4,30.32,SE,139,15.0,23.0,44,0.00,,,0.00,meteohub,2013-03-07 15:26:00,
2013-03-07 10:31:00,45.9,24.6,30.32,SE,127,13.0,23.0,43,0.00,,,0.00,meteohub,2013-03-07 15:31:00,
2013-03-07 10:36:00,46.4,25.2,30.32,SSW,211,8.0,23.0,43,0.00,,,0.00,meteohub,2013-03-07 15:36:00,
2013-03-07 10:41:00,47.1,24.6,30.32,SSE,150,11.0,20.0,41,0.00,,,0.00,meteohub,2013-03-07 15:41:00,
2013-03-07 10:47:00,47.1,25.2,30.32,SE,130,12.0,22.0,42,0.00,,,0.00,meteohub,2013-03-07 15:47:00,
2013-03-07 10:52:00,47.3,24.8,30.31,ESE,112,14.0,22.0,41,0.00,,,0.00,meteohub,2013-03-07 15:52:00,
2013-03-07 10:57:00,47.7,25.2,30.31,SE,133,17.0,22.0,41,0.00,,,0.00,meteohub,2013-03-07 15:57:00,
2013-03-07 11:02:00,48.0,25.5,30.31,SSE,161,7.0,22.0,41,0.00,,,0.00,meteohub,2013-03-07 16:02:00,
2013-03-07 11:07:00,48.7,26.1,30.30,SE,143,15.0,22.0,41,0.00,,,0.00,meteohub,2013-03-07 16:07:00,
2013-03-07 11:12:00,49.5,26.1,30.30,SSE,161,11.0,22.0,40,0.00,,,0.00,meteohub,2013-03-07 16:12:00,
2013-03-07 11:17:00,50.4,26.4,30.30,SSE,150,16.0,24.0,39,0.00,,,0.00,meteohub,2013-03-07 16:17:00,
2013-03-07 11:22:00,50.7,25.3,30.30,SE,129,17.0,24.0,37,0.00,,,0.00,meteohub,2013-03-07 16:22:00,
2013-03-07 11:27:00,51.3,25.9,30.30,SSE,158,11.0,24.0,37,0.00,,,0.00,meteohub,2013-03-07 16:27:00,
2013-03-07 11:32:00,51.4,25.3,30.30,South,186,19.0,23.0,36,0.00,,,0.00,meteohub,2013-03-07 16:32:00,
2013-03-07 11:37:00,51.6,25.5,30.30,SSE,160,6.0,23.0,36,0.00,,,0.00,meteohub,2013-03-07 16:37:00,
2013-03-07 11:42:00,52.0,25.2,30.29,South,170,17.0,23.0,35,0.00,,,0.00,meteohub,2013-03-07 16:42:00,
2013-03-07 11:47:00,52.0,25.9,30.29,SSE,152,14.0,26.0,36,0.00,,,0.00,meteohub,2013-03-07 16:47:00,
2013-03-07 11:52:00,52.5,27.0,30.29,South,191,13.0,26.0,37,0.00,,,0.00,meteohub,2013-03-07 16:52:00,
2013-03-07 11:57:00,53.2,27.0,30.29,SSE,152,15.0,26.0,36,0.00,,,0.00,meteohub,2013-03-07 16:57:00,
2013-03-07 12:02:00,53.4,25.7,30.29,SE,133,19.0,22.0,34,0.00,,,0.00,meteohub,2013-03-07 17:02:00,
2013-03-07 12:07:00,54.0,26.2,30.28,South,190,6.0,23.0,34,0.00,,,0.00,meteohub,2013-03-07 17:07:00,
2013-03-07 12:12:00,54.3,25.2,30.28,SSE,148,16.0,23.0,32,0.00,,,0.00,meteohub,2013-03-07 17:12:00,
2013-03-07 12:18:00,54.5,26.1,30.28,South,169,20.0,23.0,33,0.00,,,0.00,meteohub,2013-03-07 17:18:00,
2013-03-07 12:23:00,54.7,26.1,30.28,SSE,153,16.0,25.0,33,0.00,,,0.00,meteohub,2013-03-07 17:23:00,
2013-03-07 12:28:00,55.0,25.7,30.28,SSE,152,24.0,26.0,32,0.00,,,0.00,meteohub,2013-03-07 17:28:00,
2013-03-07 12:33:00,55.2,25.9,30.28,SSE,153,14.0,29.0,32,0.00,,,0.00,meteohub,2013-03-07 17:33:00,
2013-03-07 12:38:00,55.8,26.4,30.28,SSW,203,12.0,29.0,32,0.00,,,0.00,meteohub,2013-03-07 17:38:00,
2013-03-07 12:44:00,56.1,25.9,30.28,SW,226,14.0,28.0,31,0.00,,,0.00,meteohub,2013-03-07 17:44:00,
2013-03-07 12:49:00,56.5,25.3,30.28,SE,145,15.0,23.0,30,0.00,,,0.00,meteohub,2013-03-07 17:49:00,
2013-03-07 12:54:00,56.5,25.3,30.28,SE,139,10.0,26.0,30,0.00,,,0.00,meteohub,2013-03-07 17:54:00,
2013-03-07 12:59:00,56.5,26.2,30.28,SSE,153,16.0,26.0,31,0.00,,,0.00,meteohub,2013-03-07 17:59:00,
2013-03-07 13:04:00,56.8,26.6,30.28,SSW,200,13.0,26.0,31,0.00,,,0.00,meteohub,2013-03-07 18:04:00,
2013-03-07 13:09:00,57.0,25.9,30.27,SSE,154,10.0,25.0,30,0.00,,,0.00,meteohub,2013-03-07 18:09:00,
2013-03-07 13:14:00,57.2,26.1,30.27,ESE,113,17.0,26.0,30,0.00,,,0.00,meteohub,2013-03-07 18:14:00,
2013-03-07 13:19:00,57.6,26.4,30.27,South,186,21.0,26.0,30,0.00,,,0.00,meteohub,2013-03-07 18:19:00,
2013-03-07 13:24:00,57.6,27.1,30.27,South,176,15.0,26.0,31,0.00,,,0.00,meteohub,2013-03-07 18:24:00,
2013-03-07 13:29:00,58.3,27.0,30.27,ESE,108,19.0,26.0,30,0.00,,,0.00,meteohub,2013-03-07 18:29:00,
2013-03-07 13:34:00,58.1,26.1,30.27,SSE,160,10.0,26.0,29,0.00,,,0.00,meteohub,2013-03-07 18:34:00,
2013-03-07 13:39:00,58.5,25.5,30.27,SW,221,13.0,26.0,28,0.00,,,0.00,meteohub,2013-03-07 18:39:00,
2013-03-07 13:44:00,58.8,25.7,30.26,South,188,9.0,24.0,28,0.00,,,0.00,meteohub,2013-03-07 18:44:00,
2013-03-07 13:49:00,59.2,26.1,30.26,SSW,209,10.0,24.0,28,0.00,,,0.00,meteohub,2013-03-07 18:49:00,
2013-03-07 13:54:00,59.4,26.2,30.26,SE,127,12.0,24.0,28,0.00,,,0.00,meteohub,2013-03-07 18:54:00,
2013-03-07 13:59:00,59.4,26.2,30.25,SSW,203,12.0,24.0,28,0.00,,,0.00,meteohub,2013-03-07 18:59:00,
2013-03-07 14:04:00,59.7,26.6,30.25,SE,134,14.0,24.0,28,0.00,,,0.00,meteohub,2013-03-07 19:04:00,
2013-03-07 14:09:00,59.9,26.8,30.25,SSE,156,15.0,22.0,28,0.00,,,0.00,meteohub,2013-03-07 19:09:00,
2013-03-07 14:14:00,60.3,27.0,30.24,SSE,162,4.0,23.0,28,0.00,,,0.00,meteohub,2013-03-07 19:14:00,
2013-03-07 14:20:00,60.4,26.2,30.24,South,173,17.0,23.0,27,0.00,,,0.00,meteohub,2013-03-07 19:20:00,
2013-03-07 14:25:00,60.4,27.1,30.24,SSE,160,19.0,26.0,28,0.00,,,0.00,meteohub,2013-03-07 19:25:00,
2013-03-07 14:30:00,61.0,25.9,30.23,South,169,14.0,26.0,26,0.00,,,0.00,meteohub,2013-03-07 19:30:00,
2013-03-07 14:35:00,61.2,26.1,30.22,SSE,149,10.0,26.0,26,0.00,,,0.00,meteohub,2013-03-07 19:35:00,
2013-03-07 14:40:00,61.5,26.2,30.22,SSW,195,19.0,23.0,26,0.00,,,0.00,meteohub,2013-03-07 19:40:00,
2013-03-07 14:45:00,61.5,26.2,30.22,SE,135,11.0,23.0,26,0.00,,,0.00,meteohub,2013-03-07 19:45:00,
2013-03-07 14:50:00,61.9,26.6,30.22,South,180,12.0,25.0,26,0.00,,,0.00,meteohub,2013-03-07 19:50:00,
2013-03-07 14:55:00,62.2,27.0,30.22,SSE,158,15.0,25.0,26,0.00,,,0.00,meteohub,2013-03-07 19:55:00,
2013-03-07 15:00:00,62.1,25.9,30.21,SE,139,9.0,22.0,25,0.00,,,0.00,meteohub,2013-03-07 20:00:00,
2013-03-07 15:05:00,62.2,26.1,30.21,SSE,155,23.0,27.0,25,0.00,,,0.00,meteohub,2013-03-07 20:05:00,
2013-03-07 15:10:00,62.2,27.0,30.22,South,186,20.0,27.0,26,0.00,,,0.00,meteohub,2013-03-07 20:10:00,
2013-03-07 15:15:00,62.2,27.0,30.21,SSE,149,13.0,27.0,26,0.00,,,0.00,meteohub,2013-03-07 20:15:00,
2013-03-07 15:20:00,62.4,26.1,30.21,SSE,158,11.0,24.0,25,0.00,,,0.00,meteohub,2013-03-07 20:20:00,
2013-03-07 15:25:00,62.8,26.4,30.21,South,174,16.0,24.0,25,0.00,,,0.00,meteohub,2013-03-07 20:25:00,
2013-03-07 15:30:00,62.8,27.3,30.21,SE,127,11.0,24.0,26,0.00,,,0.00,meteohub,2013-03-07 20:30:00,
2013-03-07 15:35:00,63.0,26.6,30.20,SE,124,19.0,21.0,25,0.00,,,0.00,meteohub,2013-03-07 20:35:00,
2013-03-07 15:40:00,62.8,26.4,30.20,ESE,119,15.0,26.0,25,0.00,,,0.00,meteohub,2013-03-07 20:40:00,
2013-03-07 15:45:00,62.8,26.4,30.20,SE,138,22.0,26.0,25,0.00,,,0.00,meteohub,2013-03-07 20:45:00,
2013-03-07 15:50:00,63.0,26.6,30.19,ESE,118,17.0,26.0,25,0.00,,,0.00,meteohub,2013-03-07 20:50:00,
2013-03-07 15:55:00,63.7,27.1,30.20,ESE,122,13.0,25.0,25,0.00,,,0.00,meteohub,2013-03-07 20:55:00,
2013-03-07 16:00:00,63.7,27.1,30.19,SSW,206,11.0,23.0,25,0.00,,,0.00,meteohub,2013-03-07 21:00:00,
2013-03-07 16:05:00,63.9,27.3,30.19,SSW,210,20.0,27.0,25,0.00,,,0.00,meteohub,2013-03-07 21:05:00,
2013-03-07 16:10:00,63.9,27.3,30.19,SSE,151,10.0,27.0,25,0.00,,,0.00,meteohub,2013-03-07 21:10:00,
2013-03-07 16:15:00,64.2,27.7,30.19,SE,144,4.0,25.0,25,0.00,,,0.00,meteohub,2013-03-07 21:15:00,
2013-03-07 16:21:00,64.8,28.0,30.19,SE,124,12.0,22.0,25,0.00,,,0.00,meteohub,2013-03-07 21:21:00,
2013-03-07 16:26:00,64.8,28.0,30.19,SSE,153,13.0,21.0,25,0.00,,,0.00,meteohub,2013-03-07 21:26:00,
2013-03-07 16:31:00,64.8,28.0,30.19,ESE,121,15.0,23.0,25,0.00,,,0.00,meteohub,2013-03-07 21:31:00,
2013-03-07 16:36:00,64.6,28.0,30.18,SE,129,11.0,24.0,25,0.00,,,0.00,meteohub,2013-03-07 21:36:00,
2013-03-07 16:41:00,64.8,28.0,30.18,SE,142,10.0,24.0,25,0.00,,,0.00,meteohub,2013-03-07 21:41:00,
2013-03-07 16:46:00,65.1,27.5,30.18,South,173,7.0,24.0,24,0.00,,,0.00,meteohub,2013-03-07 21:46:00,
2013-03-07 16:51:00,65.7,27.9,30.18,South,173,15.0,21.0,24,0.00,,,0.00,meteohub,2013-03-07 21:51:00,
2013-03-07 16:56:00,65.7,27.9,30.18,SSW,205,7.0,20.0,24,0.00,,,0.00,meteohub,2013-03-07 21:56:00,
2013-03-07 17:01:00,65.8,28.0,30.18,South,186,11.0,22.0,24,0.00,,,0.00,meteohub,2013-03-07 22:01:00,
2013-03-07 17:06:00,65.8,28.0,30.18,ESE,120,14.0,23.0,24,0.00,,,0.00,meteohub,2013-03-07 22:06:00,
2013-03-07 17:11:00,66.0,28.2,30.18,SSW,202,15.0,23.0,24,0.00,,,0.00,meteohub,2013-03-07 22:11:00,
2013-03-07 17:16:00,66.0,28.2,30.17,SSW,209,18.0,24.0,24,0.00,,,0.00,meteohub,2013-03-07 22:16:00,
2013-03-07 17:21:00,66.0,28.2,30.18,SSW,193,13.0,25.0,24,0.00,,,0.00,meteohub,2013-03-07 22:21:00,
2013-03-07 17:26:00,65.8,28.9,30.17,SSW,195,5.0,25.0,25,0.00,,,0.00,meteohub,2013-03-07 22:26:00,
2013-03-07 17:31:00,66.0,29.1,30.17,South,176,11.0,21.0,25,0.00,,,0.00,meteohub,2013-03-07 22:31:00,
2013-03-07 17:36:00,65.5,28.8,30.17,SE,127,15.0,21.0,25,0.00,,,0.00,meteohub,2013-03-07 22:36:00,
2013-03-07 17:41:00,65.1,28.4,30.17,ESE,121,15.0,19.0,25,0.00,,,0.00,meteohub,2013-03-07 22:41:00,
2013-03-07 17:47:00,65.1,28.4,30.17,SSE,154,15.0,25.0,25,0.00,,,0.00,meteohub,2013-03-07 22:47:00,
2013-03-07 17:52:00,65.1,28.4,30.17,SE,129,9.0,25.0,25,0.00,,,0.00,meteohub,2013-03-07 22:52:00,
2013-03-07 17:57:00,65.3,28.6,30.17,SSW,205,13.0,19.0,25,0.00,,,0.00,meteohub,2013-03-07 22:57:00,
2013-03-07 18:02:00,64.9,28.2,30.17,SSE,167,11.0,21.0,25,0.00,,,0.00,meteohub,2013-03-07 23:02:00,
2013-03-07 18:07:00,64.9,29.3,30.17,SSE,153,13.0,21.0,26,0.00,,,0.00,meteohub,2013-03-07 23:07:00,
2013-03-07 18:12:00,65.1,28.4,30.18,South,191,10.0,21.0,25,0.00,,,0.00,meteohub,2013-03-07 23:12:00,
2013-03-07 18:17:00,65.5,28.8,30.18,South,170,17.0,20.0,25,0.00,,,0.00,meteohub,2013-03-07 23:17:00,
2013-03-07 18:22:00,65.5,27.7,30.18,SSE,165,10.0,23.0,24,0.00,,,0.00,meteohub,2013-03-07 23:22:00,
2013-03-07 18:27:00,65.5,28.8,30.18,SSW,193,4.0,23.0,25,0.00,,,0.00,meteohub,2013-03-07 23:27:00,
2013-03-07 18:32:00,65.1,29.3,30.18,SE,130,6.0,23.0,26,0.00,,,0.00,meteohub,2013-03-07 23:32:00,
2013-03-07 18:37:00,65.1,29.3,30.19,SE,135,8.0,18.0,26,0.00,,,0.00,meteohub,2013-03-07 23:37:00,
2013-03-07 18:42:00,64.8,29.1,30.18,ESE,120,11.0,16.0,26,0.00,,,0.00,meteohub,2013-03-07 23:42:00,
2013-03-07 18:47:00,64.6,28.9,30.18,SE,124,8.0,15.0,26,0.00,,,0.00,meteohub,2013-03-07 23:47:00,
2013-03-07 18:52:00,64.2,29.5,30.18,SSE,155,15.0,18.0,27,0.00,,,0.00,meteohub,2013-03-07 23:52:00,
2013-03-07 18:57:00,64.0,29.3,30.18,ESE,113,12.0,21.0,27,0.00,,,0.00,meteohub,2013-03-07 23:57:00,
2013-03-07 19:02:00,63.9,29.3,30.18,ESE,118,11.0,21.0,27,0.00,,,0.00,meteohub,2013-03-08 00:02:00,
2013-03-07 19:07:00,63.5,28.9,30.18,ESE,122,10.0,20.0,27,0.00,,,0.00,meteohub,2013-03-08 00:07:00,
2013-03-07 19:12:00,63.1,29.5,30.18,ESE,115,9.0,18.0,28,0.00,,,0.00,meteohub,2013-03-08 00:12:00,
2013-03-07 19:17:00,62.8,29.1,30.18,SE,127,11.0,18.0,28,0.00,,,0.00,meteohub,2013-03-08 00:17:00,
2013-03-07 19:22:00,62.6,29.1,30.18,South,191,7.0,18.0,28,0.00,,,0.00,meteohub,2013-03-08 00:22:00,
2013-03-07 19:27:00,62.2,29.7,30.18,ESE,106,8.0,18.0,29,0.00,,,0.00,meteohub,2013-03-08 00:27:00,
2013-03-07 19:32:00,62.1,29.5,30.18,ESE,112,13.0,18.0,29,0.00,,,0.00,meteohub,2013-03-08 00:32:00,
2013-03-07 19:37:00,61.5,29.8,30.18,SE,124,7.0,17.0,30,0.00,,,0.00,meteohub,2013-03-08 00:37:00,
2013-03-07 19:42:00,61.2,29.5,30.19,ESE,108,7.0,17.0,30,0.00,,,0.00,meteohub,2013-03-08 00:42:00,
2013-03-07 19:47:00,61.0,30.2,30.19,ESE,104,9.0,15.0,31,0.00,,,0.00,meteohub,2013-03-08 00:47:00,
2013-03-07 19:52:00,60.6,29.8,30.19,East,95,10.0,13.0,31,0.00,,,0.00,meteohub,2013-03-08 00:52:00,
2013-03-07 19:57:00,60.4,29.7,30.19,SE,124,10.0,15.0,31,0.00,,,0.00,meteohub,2013-03-08 00:57:00,
2013-03-07 20:02:00,60.3,29.5,30.19,SE,127,11.0,15.0,31,0.00,,,0.00,meteohub,2013-03-08 01:02:00,
2013-03-07 20:07:00,60.1,30.2,30.19,ESE,119,8.0,18.0,32,0.00,,,0.00,meteohub,2013-03-08 01:07:00,
2013-03-07 20:12:00,59.9,30.0,30.19,ESE,105,12.0,18.0,32,0.00,,,0.00,meteohub,2013-03-08 01:12:00,
2013-03-07 20:17:00,59.7,29.8,30.19,SE,146,6.0,18.0,32,0.00,,,0.00,meteohub,2013-03-08 01:17:00,
2013-03-07 20:22:00,59.5,29.7,30.19,ESE,110,11.0,16.0,32,0.00,,,0.00,meteohub,2013-03-08 01:22:00,
2013-03-07 20:27:00,59.4,29.5,30.19,ESE,103,10.0,16.0,32,0.00,,,0.00,meteohub,2013-03-08 01:27:00,
2013-03-07 20:32:00,59.2,30.0,30.19,ESE,109,8.0,16.0,33,0.00,,,0.00,meteohub,2013-03-08 01:32:00,
2013-03-07 20:36:00,58.8,29.8,30.20,ESE,113,7.0,16.0,33,0.00,,,0.00,meteohub,2013-03-08 01:36:00,
2013-03-07 20:42:00,58.6,29.7,30.20,SE,131,9.0,17.0,33,0.00,,,0.00,meteohub,2013-03-08 01:42:00,
2013-03-07 20:47:00,58.6,29.7,30.20,East,97,12.0,17.0,33,0.00,,,0.00,meteohub,2013-03-08 01:47:00,
2013-03-07 20:52:00,58.5,29.5,30.20,ESE,112,10.0,16.0,33,0.00,,,0.00,meteohub,2013-03-08 01:52:00,
2013-03-07 20:57:00,58.3,29.3,30.20,ESE,122,10.0,16.0,33,0.00,,,0.00,meteohub,2013-03-08 01:57:00,
2013-03-07 21:02:00,57.9,29.7,30.20,East,101,8.0,16.0,34,0.00,,,0.00,meteohub,2013-03-08 02:02:00,
2013-03-07 21:07:00,57.9,29.7,30.20,ENE,65,13.0,16.0,34,0.00,,,0.00,meteohub,2013-03-08 02:07:00,
2013-03-07 21:12:00,57.7,29.5,30.20,SE,126,10.0,19.0,34,0.00,,,0.00,meteohub,2013-03-08 02:12:00,
2013-03-07 21:17:00,57.6,30.0,30.20,East,100,12.0,19.0,35,0.00,,,0.00,meteohub,2013-03-08 02:17:00,
2013-03-07 21:22:00,57.4,30.0,30.20,ESE,115,14.0,17.0,35,0.00,,,0.00,meteohub,2013-03-08 02:22:00,
2013-03-07 21:27:00,57.2,29.8,30.21,ESE,108,14.0,17.0,35,0.00,,,0.00,meteohub,2013-03-08 02:27:00,
2013-03-07 21:32:00,57.0,29.7,30.21,ESE,119,8.0,17.0,35,0.00,,,0.00,meteohub,2013-03-08 02:32:00,
2013-03-07 21:37:00,56.5,29.8,30.21,ESE,105,12.0,17.0,36,0.00,,,0.00,meteohub,2013-03-08 02:37:00,
2013-03-07 21:42:00,56.1,30.2,30.21,ESE,111,7.0,17.0,37,0.00,,,0.00,meteohub,2013-03-08 02:42:00,
2013-03-07 21:47:00,55.9,30.0,30.21,SE,124,11.0,14.0,37,0.00,,,0.00,meteohub,2013-03-08 02:47:00,
2013-03-07 21:52:00,55.8,29.8,30.21,SE,129,6.0,15.0,37,0.00,,,0.00,meteohub,2013-03-08 02:52:00,
2013-03-07 21:57:00,55.6,30.4,30.21,ESE,110,9.0,15.0,38,0.00,,,0.00,meteohub,2013-03-08 02:57:00,
2013-03-07 22:02:00,55.2,30.0,30.21,ESE,119,11.0,15.0,38,0.00,,,0.00,meteohub,2013-03-08 03:02:00,
2013-03-07 22:07:00,55.0,30.6,30.21,SE,129,8.0,14.0,39,0.00,,,0.00,meteohub,2013-03-08 03:07:00,
2013-03-07 22:12:00,55.0,30.6,30.22,SE,129,10.0,19.0,39,0.00,,,0.00,meteohub,2013-03-08 03:12:00,
2013-03-07 22:17:00,55.2,30.7,30.22,SE,143,13.0,19.0,39,0.00,,,0.00,meteohub,2013-03-08 03:17:00,
2013-03-07 22:22:00,55.4,30.2,30.22,ESE,115,12.0,19.0,38,0.00,,,0.00,meteohub,2013-03-08 03:22:00,
2013-03-07 22:27:00,55.6,30.4,30.22,SE,124,11.0,18.0,38,0.00,,,0.00,meteohub,2013-03-08 03:27:00,
2013-03-07 22:32:00,55.4,30.2,30.22,SSE,152,10.0,19.0,38,0.00,,,0.00,meteohub,2013-03-08 03:32:00,
2013-03-07 22:37:00,55.6,30.4,30.22,SE,134,14.0,19.0,38,0.00,,,0.00,meteohub,2013-03-08 03:37:00,
2013-03-07 22:42:00,55.8,29.8,30.22,ESE,112,16.0,20.0,37,0.00,,,0.00,meteohub,2013-03-08 03:42:00,
2013-03-07 22:47:00,55.9,30.0,30.23,SE,139,8.0,20.0,37,0.00,,,0.00,meteohub,2013-03-08 03:47:00,
2013-03-07 22:52:00,55.9,30.0,30.23,ESE,113,11.0,20.0,37,0.00,,,0.00,meteohub,2013-03-08 03:52:00,
2013-03-07 22:57:00,55.8,29.8,30.23,SSE,165,10.0,22.0,37,0.00,,,0.00,meteohub,2013-03-08 03:57:00,
2013-03-07 23:02:00,55.8,29.8,30.24,ESE,122,9.0,22.0,37,0.00,,,0.00,meteohub,2013-03-08 04:02:00,
2013-03-07 23:07:00,55.6,30.4,30.24,SE,134,15.0,21.0,38,0.00,,,0.00,meteohub,2013-03-08 04:07:00,
2013-03-07 23:13:00,55.4,30.2,30.24,SE,124,11.0,21.0,38,0.00,,,0.00,meteohub,2013-03-08 04:13:00,
2013-03-07 23:18:00,55.2,30.0,30.24,ESE,121,11.0,21.0,38,0.00,,,0.00,meteohub,2013-03-08 04:18:00,
2013-03-07 23:23:00,55.0,29.8,30.24,SE,127,9.0,21.0,38,0.00,,,0.00,meteohub,2013-03-08 04:23:00,
2013-03-07 23:28:00,54.9,29.7,30.24,South,170,11.0,21.0,38,0.00,,,0.00,meteohub,2013-03-08 04:28:00,
2013-03-07 23:33:00,54.9,29.7,30.24,SE,124,9.0,18.0,38,0.00,,,0.00,meteohub,2013-03-08 04:33:00,
2013-03-07 23:38:00,54.7,30.2,30.24,SSE,152,11.0,18.0,39,0.00,,,0.00,meteohub,2013-03-08 04:38:00,
2013-03-07 23:43:00,54.5,30.0,30.23,ESE,122,12.0,18.0,39,0.00,,,0.00,meteohub,2013-03-08 04:43:00,
2013-03-07 23:48:00,54.3,29.8,30.23,ESE,119,22.0,22.0,39,0.00,,,0.00,meteohub,2013-03-08 04:48:00,
2013-03-07 23:53:00,54.1,29.7,30.23,SE,134,12.0,22.0,39,0.00,,,0.00,meteohub,2013-03-08 04:53:00,
2013-03-07 23:58:00,54.1,30.4,30.23,SE,129,9.0,22.0,40,0.00,,,0.00,meteohub,2013-03-08 04:58:00,